Time,TemperatureF,DewpointF,PressureIn,WindDirection,WindDirectionDegrees,WindSpeedMPH,WindSpeedGustMPH,Humidity,HourlyPrecipIn,Conditions,Clouds,dailyrainin,SoftwareType,DateUTC
2013-11-23 00:05:00,63.3,59.7,30.12,North,360,0.0,0.0,88,0.00,,,0.14,Wunderground v.1.15,2013-11-23 06:05:00,
2013-11-23 00:10:00,63.2,59.6,30.12,North,360,0.0,0.0,88,0.00,,,0.14,Wunderground v.1.15,2013-11-23 06:10:00,
2013-11-23 00:15:00,63.2,59.6,30.12,North,360,0.0,0.0,88,0.00,,,0.00,Wunderground v.1.15,2013-11-23 06:15:00,
2013-11-23 00:25:00,63.0,59.4,30.12,North,360,0.0,0.0,88,0.00,,,0.00,Wunderground v.1.15,2013-11-23 06:25:00,
2013-11-23 00:35:00,62.9,59.3,30.12,North,360,0.0,0.0,88,0.00,,,0.00,Wunderground v.1.15,2013-11-23 06:35:00,
2013-11-23 00:45:00,62.7,59.1,30.12,North,360,0.0,0.0,88,0.00,,,0.00,Wunderground v.1.15,2013-11-23 06:45:00,
2013-11-23 00:55:00,62.6,59.0,30.12,North,360,0.0,0.0,88,0.00,,,0.00,Wunderground v.1.15,2013-11-23 06:55:00,
2013-11-23 01:05:00,62.6,59.0,30.12,North,360,0.0,0.0,88,0.00,,,0.00,Wunderground v.1.15,2013-11-23 07:05:00,
2013-11-23 01:15:00,62.8,59.2,30.12,North,360,0.0,0.0,88,0.00,,,0.00,Wunderground v.1.15,2013-11-23 07:15:00,
2013-11-23 01:20:00,62.9,59.3,30.12,North,360,0.0,0.0,88,0.00,,,0.00,Wunderground v.1.15,2013-11-23 07:20:00,
2013-11-23 01:30:00,62.9,59.3,30.12,North,360,0.0,0.0,88,0.00,,,0.00,Wunderground v.1.15,2013-11-23 07:30:00,
2013-11-23 01:40:00,63.0,59.4,30.12,North,360,0.0,0.0,88,0.00,,,0.00,Wunderground v.1.15,2013-11-23 07:40:00,
2013-11-23 01:45:00,63.0,59.4,30.12,North,360,0.0,0.0,88,0.00,,,0.00,Wunderground v.1.15,2013-11-23 07:45:00,
2013-11-23 01:55:00,63.0,59.4,30.12,North,360,0.0,0.0,88,0.00,,,0.00,Wunderground v.1.15,2013-11-23 07:55:00,
2013-11-23 02:05:00,63.0,59.4,30.12,North,360,0.0,0.0,88,0.00,,,0.00,Wunderground v.1.15,2013-11-23 08:05:00,
2013-11-23 02:15:00,63.0,59.4,30.12,North,360,0.0,0.0,88,0.00,,,0.00,Wunderground v.1.15,2013-11-23 08:15:00,
2013-11-23 02:20:00,63.0,59.4,30.12,North,360,0.0,0.0,88,0.00,,,0.00,Wunderground v.1.15,2013-11-23 08:20:00,
2013-11-23 02:30:00,63.1,59.5,30.12,North,360,0.0,0.0,88,0.00,,,0.00,Wunderground v.1.15,2013-11-23 08:30:00,
2013-11-23 02:40:00,63.1,59.5,30.12,North,360,0.0,0.0,88,0.00,,,0.00,Wunderground v.1.15,2013-11-23 08:40:00,
2013-11-23 02:50:00,63.2,59.6,30.11,North,360,0.0,0.0,88,0.00,,,0.00,Wunderground v.1.15,2013-11-23 08:50:00,
2013-11-23 03:00:00,63.1,59.5,30.11,North,360,0.0,0.0,88,0.00,,,0.00,Wunderground v.1.15,2013-11-23 09:00:00,
2013-11-23 03:05:00,63.2,59.6,30.11,North,360,0.0,0.0,88,0.00,,,0.00,Wunderground v.1.15,2013-11-23 09:05:00,
2013-11-23 03:15:00,63.1,59.5,30.11,North,360,0.0,0.0,88,0.00,,,0.00,Wunderground v.1.15,2013-11-23 09:15:00,
2013-11-23 03:25:00,63.1,59.5,30.11,North,360,0.0,0.0,88,0.00,,,0.00,Wunderground v.1.15,2013-11-23 09:25:00,
2013-11-23 03:30:00,63.1,59.5,30.11,North,360,0.0,0.0,88,0.00,,,0.00,Wunderground v.1.15,2013-11-23 09:30:00,
2013-11-23 03:35:00,63.1,59.5,30.11,North,360,0.0,0.0,88,0.00,,,0.00,Wunderground v.1.15,2013-11-23 09:35:00,
2013-11-23 03:45:00,63.1,59.5,30.11,North,360,0.0,0.0,88,0.00,,,0.00,Wunderground v.1.15,2013-11-23 09:45:00,
2013-11-23 03:50:00,63.1,59.5,30.11,North,360,0.0,0.0,88,0.00,,,0.00,Wunderground v.1.15,2013-11-23 09:50:00,
2013-11-23 04:00:00,63.0,59.4,30.11,North,360,0.0,0.0,88,0.00,,,0.00,Wunderground v.1.15,2013-11-23 10:00:00,
2013-11-23 04:05:00,63.0,59.4,30.11,North,360,0.0,0.0,88,0.00,,,0.00,Wunderground v.1.15,2013-11-23 10:05:00,
2013-11-23 04:15:00,62.9,59.3,30.11,North,360,0.0,0.0,88,0.00,,,0.00,Wunderground v.1.15,2013-11-23 10:15:00,
2013-11-23 04:20:00,62.9,59.3,30.11,North,360,0.0,0.0,88,0.00,,,0.00,Wunderground v.1.15,2013-11-23 10:20:00,
2013-11-23 04:30:00,62.9,59.3,30.11,North,360,0.0,0.0,88,0.00,,,0.00,Wunderground v.1.15,2013-11-23 10:30:00,
2013-11-23 04:40:00,62.9,59.3,30.11,North,360,0.0,0.0,88,0.00,,,0.00,Wunderground v.1.15,2013-11-23 10:40:00,
2013-11-23 04:50:00,62.9,59.3,30.12,North,360,0.0,0.0,88,0.00,,,0.00,Wunderground v.1.15,2013-11-23 10:50:00,
2013-11-23 05:00:00,62.9,59.3,30.12,North,360,0.0,0.0,88,0.00,,,0.00,Wunderground v.1.15,2013-11-23 11:00:00,
2013-11-23 05:05:00,62.9,59.3,30.12,North,360,0.0,0.0,88,0.00,,,0.00,Wunderground v.1.15,2013-11-23 11:05:00,
2013-11-23 05:15:00,62.9,59.3,30.11,North,360,0.0,0.0,88,0.00,,,0.00,Wunderground v.1.15,2013-11-23 11:15:00,
2013-11-23 05:25:00,63.0,59.4,30.11,North,360,0.0,0.0,88,0.00,,,0.00,Wunderground v.1.15,2013-11-23 11:25:00,
2013-11-23 05:35:00,63.1,59.5,30.12,North,360,0.0,0.0,88,0.00,,,0.00,Wunderground v.1.15,2013-11-23 11:35:00,
2013-11-23 05:45:00,63.1,59.5,30.12,North,360,0.0,0.0,88,0.00,,,0.00,Wunderground v.1.15,2013-11-23 11:45:00,
2013-11-23 05:55:00,63.1,59.5,30.12,North,360,0.0,0.0,88,0.00,,,0.00,Wunderground v.1.15,2013-11-23 11:55:00,
2013-11-23 06:05:00,63.0,59.4,30.12,North,360,0.0,0.0,88,0.00,,,0.00,Wunderground v.1.15,2013-11-23 12:05:00,
2013-11-23 06:10:00,63.0,59.4,30.12,North,360,0.0,0.0,88,0.00,,,0.00,Wunderground v.1.15,2013-11-23 12:10:00,
2013-11-23 06:20:00,62.9,59.3,30.12,North,360,0.0,0.0,88,0.00,,,0.00,Wunderground v.1.15,2013-11-23 12:20:00,
2013-11-23 06:30:00,62.8,59.2,30.12,North,360,0.0,0.0,88,0.00,,,0.00,Wunderground v.1.15,2013-11-23 12:30:00,
2013-11-23 06:40:00,62.9,59.3,30.12,North,360,0.0,0.0,88,0.00,,,0.00,Wunderground v.1.15,2013-11-23 12:40:00,
2013-11-23 06:45:00,62.9,59.3,30.13,North,360,0.0,0.0,88,0.00,,,0.00,Wunderground v.1.15,2013-11-23 12:45:00,
2013-11-23 06:55:00,62.9,59.3,30.13,North,360,0.0,0.0,88,0.00,,,0.00,Wunderground v.1.15,2013-11-23 12:55:00,
2013-11-23 07:05:00,63.0,59.4,30.14,North,360,0.0,0.0,88,0.00,,,0.00,Wunderground v.1.15,2013-11-23 13:05:00,
2013-11-23 07:15:00,63.1,59.5,30.15,North,360,0.0,0.0,88,0.00,,,0.00,Wunderground v.1.15,2013-11-23 13:15:00,
2013-11-23 07:20:00,63.1,59.5,30.15,North,360,0.0,0.0,88,0.00,,,0.00,Wunderground v.1.15,2013-11-23 13:20:00,
2013-11-23 07:30:00,63.2,59.6,30.15,North,360,0.0,0.0,88,0.00,,,0.00,Wunderground v.1.15,2013-11-23 13:30:00,
2013-11-23 07:35:00,63.2,59.6,30.15,North,360,0.0,0.0,88,0.00,,,0.00,Wunderground v.1.15,2013-11-23 13:35:00,
2013-11-23 07:45:00,63.2,59.6,30.15,North,360,0.0,0.0,88,0.00,,,0.00,Wunderground v.1.15,2013-11-23 13:45:00,
2013-11-23 07:55:00,63.1,59.5,30.15,North,360,0.0,0.0,88,0.00,,,0.00,Wunderground v.1.15,2013-11-23 13:55:00,
2013-11-23 08:05:00,62.9,59.3,30.16,North,360,0.0,0.0,88,0.00,,,0.00,Wunderground v.1.15,2013-11-23 14:05:00,
2013-11-23 08:15:00,62.7,59.1,30.16,North,360,0.0,0.0,88,0.00,,,0.00,Wunderground v.1.15,2013-11-23 14:15:00,
2013-11-23 08:20:00,62.6,59.0,30.16,North,360,0.0,0.0,88,0.00,,,0.00,Wunderground v.1.15,2013-11-23 14:20:00,
2013-11-23 08:30:00,62.5,58.9,30.17,North,360,0.0,0.0,88,0.00,,,0.00,Wunderground v.1.15,2013-11-23 14:30:00,
2013-11-23 08:35:00,62.4,58.8,30.17,North,360,0.0,0.0,88,0.00,,,0.00,Wunderground v.1.15,2013-11-23 14:35:00,
2013-11-23 08:45:00,62.0,58.4,30.17,North,360,0.0,0.0,88,0.00,,,0.00,Wunderground v.1.15,2013-11-23 14:45:00,
2013-11-23 08:55:00,61.6,58.0,30.17,North,360,0.0,0.0,88,0.00,,,0.00,Wunderground v.1.15,2013-11-23 14:55:00,
2013-11-23 09:05:00,61.2,57.6,30.17,North,360,0.0,0.0,88,0.00,,,0.00,Wunderground v.1.15,2013-11-23 15:05:00,
2013-11-23 09:15:00,61.0,57.4,30.18,North,360,0.0,0.0,88,0.00,,,0.00,Wunderground v.1.15,2013-11-23 15:15:00,
2013-11-23 09:25:00,60.6,57.0,30.18,North,360,0.0,0.0,88,0.00,,,0.00,Wunderground v.1.15,2013-11-23 15:25:00,
2013-11-23 09:30:00,60.3,56.7,30.18,North,360,0.0,0.0,88,0.00,,,0.00,Wunderground v.1.15,2013-11-23 15:30:00,
2013-11-23 09:35:00,60.0,56.4,30.18,North,360,0.0,0.0,88,0.00,,,0.00,Wunderground v.1.15,2013-11-23 15:35:00,
2013-11-23 09:45:00,59.8,56.2,30.18,North,360,0.0,0.0,88,0.00,,,0.00,Wunderground v.1.15,2013-11-23 15:45:00,
2013-11-23 09:50:00,59.3,55.7,30.18,North,360,0.0,0.0,88,0.00,,,0.00,Wunderground v.1.15,2013-11-23 15:50:00,
2013-11-23 10:00:00,58.7,55.2,30.18,North,360,0.0,0.0,88,0.00,,,0.00,Wunderground v.1.15,2013-11-23 16:00:00,
2013-11-23 10:05:00,58.8,55.3,30.18,North,360,0.0,0.0,88,0.00,,,0.00,Wunderground v.1.15,2013-11-23 16:05:00,
2013-11-23 10:15:00,58.6,55.1,30.18,North,360,0.0,0.0,88,0.00,,,0.00,Wunderground v.1.15,2013-11-23 16:15:00,
2013-11-23 10:25:00,58.2,54.7,30.18,North,360,0.0,0.0,88,0.00,,,0.00,Wunderground v.1.15,2013-11-23 16:25:00,
2013-11-23 10:35:00,57.9,54.4,30.19,North,360,0.0,0.0,88,0.00,,,0.00,Wunderground v.1.15,2013-11-23 16:35:00,
2013-11-23 10:45:00,57.8,54.3,30.19,North,360,0.0,0.0,88,0.00,,,0.00,Wunderground v.1.15,2013-11-23 16:45:00,
2013-11-23 10:55:00,57.8,54.3,30.19,North,360,0.0,0.0,88,0.00,,,0.00,Wunderground v.1.15,2013-11-23 16:55:00,
2013-11-23 11:00:00,57.7,54.2,30.19,North,360,0.0,0.0,88,0.00,,,0.00,Wunderground v.1.15,2013-11-23 17:00:00,
2013-11-23 11:05:00,57.4,53.9,30.19,North,360,0.0,0.0,88,0.00,,,0.00,Wunderground v.1.15,2013-11-23 17:05:00,
2013-11-23 11:15:00,57.1,53.6,30.19,North,360,0.0,0.0,88,0.00,,,0.00,Wunderground v.1.15,2013-11-23 17:15:00,
2013-11-23 11:20:00,57.0,53.5,30.19,North,360,0.0,0.0,88,0.00,,,0.00,Wunderground v.1.15,2013-11-23 17:20:00,
2013-11-23 11:30:00,56.6,53.1,30.19,North,360,0.0,0.0,88,0.00,,,0.00,Wunderground v.1.15,2013-11-23 17:30:00,
2013-11-23 11:35:00,56.5,53.0,30.19,North,360,0.0,0.0,88,0.00,,,0.00,Wunderground v.1.15,2013-11-23 17:35:00,
2013-11-23 11:45:00,56.2,52.7,30.19,North,360,0.0,0.0,88,0.00,,,0.00,Wunderground v.1.15,2013-11-23 17:45:00,
2013-11-23 11:55:00,56.1,52.6,30.19,North,360,0.0,0.0,88,0.00,,,0.00,Wunderground v.1.15,2013-11-23 17:55:00,
2013-11-23 12:05:00,56.0,52.5,30.18,North,360,0.0,0.0,88,0.00,,,0.00,Wunderground v.1.15,2013-11-23 18:05:00,
2013-11-23 12:15:00,55.9,52.4,30.18,North,360,0.0,0.0,88,0.00,,,0.00,Wunderground v.1.15,2013-11-23 18:15:00,
2013-11-23 12:25:00,55.7,52.2,30.18,North,360,0.0,0.0,88,0.00,,,0.00,Wunderground v.1.15,2013-11-23 18:25:00,
2013-11-23 12:35:00,55.5,52.0,30.17,North,360,0.0,0.0,88,0.00,,,0.00,Wunderground v.1.15,2013-11-23 18:35:00,
2013-11-23 12:45:00,55.1,51.6,30.17,North,360,0.0,0.0,88,0.00,,,0.00,Wunderground v.1.15,2013-11-23 18:45:00,
2013-11-23 12:55:00,54.7,51.2,30.17,North,360,0.0,0.0,88,0.00,,,0.00,Wunderground v.1.15,2013-11-23 18:55:00,
2013-11-23 13:05:00,54.5,51.0,30.17,North,360,0.0,0.0,88,0.00,,,0.00,Wunderground v.1.15,2013-11-23 19:05:00,
2013-11-23 13:15:00,54.4,50.9,30.17,North,360,0.0,0.0,88,0.00,,,0.00,Wunderground v.1.15,2013-11-23 19:15:00,
2013-11-23 13:20:00,54.4,50.9,30.17,North,360,0.0,0.0,88,0.00,,,0.00,Wunderground v.1.15,2013-11-23 19:20:00,
2013-11-23 13:30:00,54.4,50.9,30.17,North,360,0.0,0.0,88,0.00,,,0.00,Wunderground v.1.15,2013-11-23 19:30:00,
2013-11-23 13:35:00,54.4,50.9,30.17,North,360,0.0,0.0,88,0.00,,,0.00,Wunderground v.1.15,2013-11-23 19:35:00,
2013-11-23 13:45:00,54.4,50.9,30.17,North,360,0.0,0.0,88,0.00,,,0.00,Wunderground v.1.15,2013-11-23 19:45:00,
2013-11-23 13:55:00,54.5,51.0,30.17,North,360,0.0,0.0,88,0.00,,,0.00,Wunderground v.1.15,2013-11-23 19:55:00,
2013-11-23 14:05:00,54.2,50.7,30.17,North,360,0.0,0.0,88,0.00,,,0.00,Wunderground v.1.15,2013-11-23 20:05:00,
2013-11-23 14:15:00,53.9,50.4,30.17,North,360,0.0,0.0,88,0.00,,,0.00,Wunderground v.1.15,2013-11-23 20:15:00,
2013-11-23 14:25:00,53.7,50.2,30.17,North,360,0.0,0.0,88,0.00,,,0.00,Wunderground v.1.15,2013-11-23 20:25:00,
2013-11-23 14:35:00,53.5,50.0,30.17,North,360,0.0,0.0,88,0.11,,,0.02,Wunderground v.1.15,2013-11-23 20:35:00,
2013-11-23 14:45:00,53.3,49.8,30.18,North,360,0.0,0.0,88,0.11,,,0.04,Wunderground v.1.15,2013-11-23 20:45:00,
2013-11-23 14:55:00,53.1,49.6,30.18,North,360,0.0,0.0,88,0.04,,,0.04,Wunderground v.1.15,2013-11-23 20:55:00,
2013-11-23 15:05:00,52.9,49.4,30.18,North,360,0.0,0.0,88,0.00,,,0.05,Wunderground v.1.15,2013-11-23 21:05:00,
2013-11-23 15:15:00,53.0,49.5,30.18,North,360,0.0,0.0,88,0.00,,,0.05,Wunderground v.1.15,2013-11-23 21:15:00,
2013-11-23 15:25:00,52.8,49.3,30.18,North,360,0.0,0.0,88,0.00,,,0.05,Wunderground v.1.15,2013-11-23 21:25:00,
2013-11-23 15:35:00,52.4,48.9,30.19,North,360,0.0,0.0,88,0.00,,,0.05,Wunderground v.1.15,2013-11-23 21:35:00,
2013-11-23 15:45:00,52.2,48.8,30.19,North,360,0.0,0.0,88,0.00,,,0.05,Wunderground v.1.15,2013-11-23 21:45:00,
2013-11-23 15:55:00,52.3,48.9,30.19,North,360,0.0,0.0,88,0.00,,,0.06,Wunderground v.1.15,2013-11-23 21:55:00,
2013-11-23 16:05:00,52.0,48.6,30.19,North,360,0.0,0.0,88,0.00,,,0.06,Wunderground v.1.15,2013-11-23 22:05:00,
2013-11-23 16:15:00,51.9,48.8,30.20,North,360,0.0,0.0,89,0.00,,,0.06,Wunderground v.1.15,2013-11-23 22:15:00,
2013-11-23 16:25:00,51.9,48.5,30.20,North,360,0.0,0.0,88,0.00,,,0.06,Wunderground v.1.15,2013-11-23 22:25:00,
2013-11-23 16:35:00,52.0,48.6,30.20,North,360,0.0,0.0,88,0.00,,,0.06,Wunderground v.1.15,2013-11-23 22:35:00,
2013-11-23 16:45:00,51.9,48.5,30.20,North,360,0.0,0.0,88,0.00,,,0.06,Wunderground v.1.15,2013-11-23 22:45:00,
2013-11-23 16:55:00,51.9,48.5,30.20,North,360,0.0,0.0,88,0.00,,,0.06,Wunderground v.1.15,2013-11-23 22:55:00,
2013-11-23 17:05:00,51.9,48.5,30.20,North,360,0.0,0.0,88,0.00,,,0.06,Wunderground v.1.15,2013-11-23 23:05:00,
2013-11-23 17:15:00,51.7,48.3,30.20,North,360,0.0,0.0,88,0.00,,,0.06,Wunderground v.1.15,2013-11-23 23:15:00,
2013-11-23 17:20:00,51.5,48.1,30.20,North,360,0.0,0.0,88,0.00,,,0.06,Wunderground v.1.15,2013-11-23 23:20:00,
2013-11-23 17:30:00,51.3,47.9,30.21,North,360,0.0,0.0,88,0.00,,,0.06,Wunderground v.1.15,2013-11-23 23:30:00,
2013-11-23 17:40:00,51.2,47.8,30.21,North,360,0.0,0.0,88,0.00,,,0.06,Wunderground v.1.15,2013-11-23 23:40:00,
2013-11-23 17:45:00,51.1,47.7,30.22,North,360,0.0,0.0,88,0.00,,,0.06,Wunderground v.1.15,2013-11-23 23:45:00,
2013-11-23 17:55:00,51.1,47.7,30.22,North,360,0.0,0.0,88,0.00,,,0.06,Wunderground v.1.15,2013-11-23 23:55:00,
2013-11-23 18:05:00,51.0,47.6,30.22,North,360,0.0,0.0,88,0.00,,,0.06,Wunderground v.1.15,2013-11-24 00:05:00,
2013-11-23 18:15:00,51.0,47.6,30.23,North,360,0.0,0.0,88,0.00,,,0.06,Wunderground v.1.15,2013-11-24 00:15:00,
2013-11-23 18:20:00,51.0,47.6,30.23,North,360,0.0,0.0,88,0.00,,,0.06,Wunderground v.1.15,2013-11-24 00:20:00,
2013-11-23 18:30:00,50.9,47.5,30.23,North,360,0.0,0.0,88,0.00,,,0.06,Wunderground v.1.15,2013-11-24 00:30:00,
2013-11-23 18:35:00,50.9,47.5,30.23,North,360,0.0,0.0,88,0.00,,,0.06,Wunderground v.1.15,2013-11-24 00:35:00,
2013-11-23 18:40:00,50.9,47.5,30.23,North,360,0.0,0.0,88,0.00,,,0.06,Wunderground v.1.15,2013-11-24 00:40:00,
2013-11-23 18:50:00,50.8,47.4,30.23,North,360,0.0,0.0,88,0.00,,,0.06,Wunderground v.1.15,2013-11-24 00:50:00,
2013-11-23 19:00:00,50.7,47.3,30.24,North,360,0.0,0.0,88,0.00,,,0.06,Wunderground v.1.15,2013-11-24 01:00:00,
2013-11-23 19:05:00,50.6,46.9,30.24,North,360,0.0,0.0,87,0.00,,,0.06,Wunderground v.1.15,2013-11-24 01:05:00,
2013-11-23 19:15:00,50.5,46.8,30.25,North,360,0.0,0.0,87,0.00,,,0.06,Wunderground v.1.15,2013-11-24 01:15:00,
2013-11-23 19:25:00,50.5,46.8,30.25,North,360,0.0,0.0,87,0.00,,,0.06,Wunderground v.1.15,2013-11-24 01:25:00,
2013-11-23 19:35:00,50.5,46.8,30.25,North,360,0.0,0.0,87,0.00,,,0.06,Wunderground v.1.15,2013-11-24 01:35:00,
2013-11-23 19:45:00,50.4,46.7,30.25,North,360,0.0,0.0,87,0.00,,,0.06,Wunderground v.1.15,2013-11-24 01:45:00,
2013-11-23 19:55:00,50.2,46.8,30.25,North,360,0.0,0.0,88,0.00,,,0.06,Wunderground v.1.15,2013-11-24 01:55:00,
2013-11-23 20:05:00,50.1,46.4,30.25,North,360,0.0,0.0,87,0.00,,,0.06,Wunderground v.1.15,2013-11-24 02:05:00,
2013-11-23 20:15:00,50.0,46.3,30.25,North,360,0.0,0.0,87,0.00,,,0.06,Wunderground v.1.15,2013-11-24 02:15:00,
2013-11-23 20:20:00,49.9,46.2,30.25,North,360,0.0,0.0,87,0.00,,,0.06,Wunderground v.1.15,2013-11-24 02:20:00,
2013-11-23 20:30:00,49.9,46.2,30.25,North,360,0.0,0.0,87,0.00,,,0.06,Wunderground v.1.15,2013-11-24 02:30:00,
2013-11-23 20:40:00,49.7,46.0,30.25,North,360,0.0,0.0,87,0.00,,,0.06,Wunderground v.1.15,2013-11-24 02:40:00,
2013-11-23 20:45:00,49.7,46.0,30.25,North,360,0.0,0.0,87,0.00,,,0.06,Wunderground v.1.15,2013-11-24 02:45:00,
2013-11-23 20:55:00,49.7,46.0,30.25,North,360,0.0,0.0,87,0.00,,,0.06,Wunderground v.1.15,2013-11-24 02:55:00,
2013-11-23 21:05:00,49.6,45.9,30.26,North,360,0.0,0.0,87,0.00,,,0.06,Wunderground v.1.15,2013-11-24 03:05:00,
2013-11-23 21:15:00,49.5,45.8,30.26,North,360,0.0,0.0,87,0.00,,,0.06,Wunderground v.1.15,2013-11-24 03:15:00,
2013-11-23 21:25:00,49.4,45.7,30.26,North,360,0.0,0.0,87,0.00,,,0.06,Wunderground v.1.15,2013-11-24 03:25:00,
2013-11-23 21:30:00,49.3,45.3,30.27,North,360,0.0,0.0,86,0.00,,,0.06,Wunderground v.1.15,2013-11-24 03:30:00,
2013-11-23 21:40:00,49.2,45.2,30.27,North,360,0.0,0.0,86,0.00,,,0.06,Wunderground v.1.15,2013-11-24 03:40:00,
2013-11-23 21:50:00,49.2,45.2,30.27,North,360,0.0,0.0,86,0.00,,,0.06,Wunderground v.1.15,2013-11-24 03:50:00,
2013-11-23 22:00:00,49.0,44.7,30.28,North,360,0.0,0.0,85,0.00,,,0.06,Wunderground v.1.15,2013-11-24 04:00:00,
2013-11-23 22:05:00,49.0,44.7,30.28,North,360,0.0,0.0,85,0.00,,,0.06,Wunderground v.1.15,2013-11-24 04:05:00,
2013-11-23 22:15:00,48.8,44.5,30.28,North,360,0.0,0.0,85,0.00,,,0.06,Wunderground v.1.15,2013-11-24 04:15:00,
2013-11-23 22:25:00,48.7,44.1,30.28,North,360,0.0,0.0,84,0.00,,,0.06,Wunderground v.1.15,2013-11-24 04:25:00,
2013-11-23 22:35:00,48.4,43.2,30.28,North,360,0.0,0.0,82,0.00,,,0.06,Wunderground v.1.15,2013-11-24 04:35:00,
2013-11-23 22:45:00,48.3,42.7,30.29,North,360,0.0,0.0,81,0.00,,,0.06,Wunderground v.1.15,2013-11-24 04:45:00,
2013-11-23 22:55:00,48.1,42.2,30.29,North,360,0.0,0.0,80,0.00,,,0.06,Wunderground v.1.15,2013-11-24 04:55:00,
2013-11-23 23:00:00,48.0,42.1,30.30,North,360,0.0,0.0,80,0.00,,,0.06,Wunderground v.1.15,2013-11-24 05:00:00,
2013-11-23 23:05:00,47.9,42.3,30.30,North,360,0.0,0.0,81,0.00,,,0.06,Wunderground v.1.15,2013-11-24 05:05:00,
2013-11-23 23:10:00,47.8,42.6,30.30,North,360,0.0,0.0,82,0.00,,,0.06,Wunderground v.1.15,2013-11-24 05:10:00,
2013-11-23 23:15:00,47.7,42.8,30.30,North,360,0.0,0.0,83,0.00,,,0.06,Wunderground v.1.15,2013-11-24 05:15:00,
2013-11-23 23:25:00,47.5,42.3,30.30,North,360,0.0,0.0,82,0.00,,,0.06,Wunderground v.1.15,2013-11-24 05:25:00,
2013-11-23 23:35:00,47.3,42.1,30.29,North,360,0.0,0.0,82,0.00,,,0.06,Wunderground v.1.15,2013-11-24 05:35:00,
2013-11-23 23:45:00,47.2,41.7,30.29,North,360,0.0,0.0,81,0.00,,,0.06,Wunderground v.1.15,2013-11-24 05:45:00,
2013-11-23 23:55:00,47.0,41.8,30.29,North,360,0.0,0.0,82,0.00,,,0.06,Wunderground v.1.15,2013-11-24 05:55:00,